Regional Weather Roundup
Issued by NWS

Home | Current Version | Previous Version | Graphics & Text | Print | Product List | Glossary Off
Versions: 1 2 3 4 5 6 7 8 9 10 11 12 13 14 15 16 17 18 19 20 21 22 23 24 25 26 27 28 29 30 31 32 33 34 35 36 37 38 39 40 41 42 43 44 45 46 47 48 49 50

641
ASUS43 KMKX 301300
RWRWI

WISCONSIN REGIONAL WEATHER ROUNDUP
NATIONAL WEATHER SERVICE MILWAUKEE/SULLIVAN WI
800 AM CDT TUE AUG 30 2016

NOTE: "FAIR" INDICATES FEW OR NO CLOUDS BELOW 12,000 FEET WITH NO
SIGNIFICANT WEATHER AND/OR OBSTRUCTIONS TO VISIBILITY.

WIZ001-002-006>008-014>016-023>028-301400-
NORTHWEST WISCONSIN

CITY           SKY/WX    TMP DP  RH WIND       PRES   REMARKS
SUPERIOR ARPT  MOSUNNY   63  56  78 NE6       30.17R
ASHLAND        MOSUNNY   68  64  87 N9        30.15R
HAYWARD        CLOUDY    65  64  97 N9        30.16R
SIREN          CLOUDY    63  62  97 NW3       30.16R
CUMBERLAND     CLOUDY    63  61  94 NW6       30.16R
RICE LAKE      CLOUDY    65  62  91 CALM      30.16S
CHETEK         NOT AVBL
LADYSMITH      CLOUDY    64  63  96 CALM      30.17S
EAU CLAIRE     NOT AVBL
MENOMONIE      CLOUDY    67  64  90 CALM      30.18R
NEW RICHMOND   MOSUNNY   64  64 100 CALM      30.16S
OSCEOLA        CLOUDY    65  65 100 W5        30.18F
$$

WIZ003>005-009-010-017-018-301400-
NORTH CENTRAL WISCONSIN

CITY           SKY/WX    TMP DP  RH WIND       PRES   REMARKS
MANITOWISH WTR NOT AVBL
ARBOR VITAE    CLOUDY    65  63  91 CALM      30.16R
WOODRUFF       CLOUDY    65  63  91 CALM      30.16R
RHINELANDER    CLOUDY    68  66  93 W8        30.16S
EAGLE RIVER    CLOUDY    65  65 100 CALM      30.15R
LAND O LAKES   CLOUDY    65  64  94 CALM      30.16R
PHILLIPS       PTSUNNY   64  63  96 CALM      30.15S
TOMAHAWK       CLOUDY    64  63  97 CALM      30.16S
MEDFORD        CLOUDY    64  64 100 NE3       30.17R
MERRILL        CLOUDY    66  65  97 CALM      30.17S
$$

WIZ029-030-035-036-043>047-301400-
CENTRAL WISCONSIN

CITY           SKY/WX    TMP DP  RH WIND       PRES   REMARKS
WAUSAU         CLOUDY    67  64  90 W6        30.14R
MOSINEE        SUNNY     66  66 100 VRB5      30.17R
MARSHFIELD     CLOUDY    68  62  81 NW3       30.16R
STEVENS POINT  MOSUNNY   65  65 100 CALM      30.16S
WAUPACA        SUNNY     71  70  97 NW5       30.15R FOG
WAUTOMA        FOG       69  68  96 N3        30.15R VSB 1/4
WISC RAPIDS    MOSUNNY   69  66  90 CALM      30.17R
CAMP DOUGLAS   NOT AVBL
$$

WIZ011>013-019>022-031-037>040-048>050-301400-
NORTHEAST WISCONSIN

CITY           SKY/WX    TMP DP  RH WIND       PRES   REMARKS
ANTIGO         CLOUDY    67  67 100 CALM      30.17R FOG
SHAWANO        CLOUDY    71  69  95 W6        30.13S FOG
OCONTO         NOT AVBL
STURGEON BAY   PTSUNNY   72  70  93 W6        30.13R
GREEN BAY      CLOUDY    70  70 100 W10       30.12S FOG
MANITOWOC      NOT AVBL
APPLETON         N/A     70  70 100 W9        30.12R FOG
CLINTONVILLE   FOG       68  68 100 SW5       30.13S VSB 1
OSHKOSH        MOSUNNY   72  69  90 CALM      30.12S FOG
$$

WIZ032>034-041-042-053>061-301400-
SOUTHWEST WISCONSIN

CITY           SKY/WX    TMP DP  RH WIND       PRES   REMARKS
LA CROSSE      CLOUDY    72  71  97 W5        30.13R FOG
SPARTA         MOSUNNY   66  66 100 CALM      30.13R
VIROQUA        CLOUDY    70  70 100 S3        30.14F VSB 1/4
BOSCOBEL       FOG       72  71  97 CALM      30.14F VSB 1
PRAIRIE DU CHI CLOUDY    70  69  96 CALM      30.14F
PLATTEVILLE    CLOUDY    71  71 100 S5        30.17S
$$

WIZ056-057-062-063-064-067-068-301400-
SOUTH CENTRAL WISCONSIN

CITY           SKY/WX    TMP DP  RH WIND       PRES   REMARKS
REEDSBURG      NOT AVBL
BARABOO/DELLS    N/A     70  68  95 CALM      30.13F FOG
LONE ROCK      NOT AVBL
MINERAL POINT  FOG       72  70  94 CALM      30.17F VSB<1/4
MADISON        CLOUDY    73  70  90 S5        30.13F
MIDDLETON      CLOUDY    72  72 100 CALM      30.16S
WATERTOWN      CLOUDY    69  69 100 SW5       30.15S FOG
MONROE         CLOUDY    70  68  94 SW10      30.17S FOG
JANESVILLE     PTSUNNY   72  70  94 SW6       30.15F FOG
$$

WIZ051-052-058>065-066-070>072-301400-
SOUTHEAST WISCONSIN

CITY           SKY/WX    TMP DP  RH WIND       PRES   REMARKS
MILWAUKEE      CLOUDY    75  69  81 CALM      30.14S
WAUKESHA       SUNNY     68  66  94 CALM      30.16S
MILWAUKEE/TIMM MOSUNNY   72  66  83 SW3       30.15S
RACINE         CLOUDY    73  69  87 S3        30.16F
BURLINGTON     CLOUDY    67  67  97 CALM      30.15S FOG
KENOSHA        CLOUDY    72  70  93 CALM      30.15F FOG
FOND DU LAC    CLOUDY    70  69  97 S3        30.13S FOG
SHEBOYGAN      CLOUDY    72  68  87 SW6       30.12F
WEST BEND      CLOUDY    70  68  94 CALM      30.14F
JUNEAU         CLOUDY    69  68  97 SW3       30.15S FOG
$$

LSZ147-162-301400-
LAKE SUPERIOR

STATION/POSITION TIME  TEMP    WIND        PRES    WAVE
                       AIR SEA DIR/SP/G            HT/PER
                 (UTC) (F)     (DEG/KT/KT) (MB)    (FT/S)
W MID LAKE BUOY  1150   68 67  350/ 12/ 14 1018.7R   1/ 4
DEVILS ISLAND    1200   66     350/ 18/ 20 1019.7R
PORT WING        1100   69     340/  8/ 11 1020.3R
SAXON HARBOR     1200   66     220/  2/  6 1019.6R
$$

LMZ867-665-643>646-301400-
LAKE MICHIGAN

STATION/POSITION TIME  TEMP    WIND        PRES    WAVE
                       AIR SEA DIR/SP/G            HT/PER
                 (UTC) (F)     (DEG/KT/KT) (MB)    (FT/S)
CHAMBERS ISLAND  1200   72     220/  3/  6 1019.0
S GREEN BAY BUOY 1130   72 72  200/ 12/ 14 1018.6S
N MID LAKE BUOY  1150   71 71  230/  8/ 10 1018.4R   1/ 4
NORTHPORT PIER   1200   72     230/  4/  5 1019.3R
SISTER BAY       1207   73     280/ 10/ 11   N/A
KEWAUNEE LAKESHO 1200   68     270/  2/  2 1019.2R
SHEBOYGAN LAKESH 1200   71     220/  5/  5 1019.5S
PORT WASHINGTON  1200   70     180/  5/  6 1021.0
ATWATER BUOY     1200   68     150/  4/  4   N/A
MILWAUKEE LAKESH 1210   73     230/  5/  6   N/A
S MID LAKE BUOY  1150   75 76  130/  4/  6 1020.2R   0
KENOSHA   LAKESH 1200   73     260/  4/  5 1020.7S
$$

TC  - TEMPERATURE IN CELSIUS
VSB - VISIBILITY IN STATUTE MILES
WCI - WIND CHILL INDEX
HX  - HEAT INDEX





USA.gov is the U.S. government's official web portal to all federal, state and local government web resources and services.